GFSFLT2_250_spd_072.txt.gz
Wind_Speed
36 34 28 27 36 53 55 46 39 30 45 41 40 45 46 42 46 48 49 49 46 38 32 28 24 20 13 9 10 6 10 6
24 26 30 30 46 63 57 61 52 56 38 37 47 48 45 40 38 41 42 41 32 31 30 29 25 23 22 17 15 14 18 18
21 20 28 38 56 49 51 53 53 62 46 39 39 38 31 37 38 36 39 29 29 28 28 28 29 23 22 22 18 17 18 19
18 18 21 28 43 47 47 42 48 50 46 43 41 28 28 31 33 37 44 29 29 32 22 28 29 25 23 28 24 20 21 23
23 19 24 29 44 56 50 56 50 43 36 37 30 25 25 26 27 33 35 35 30 32 26 30 35 29 34 34 28 27 31 28
27 23 28 36 42 69 59 61 50 43 35 30 27 16 14 14 21 25 32 32 34 32 24 34 36 28 27 30 33 30 29 26
24 25 39 45 46 60 66 62 54 41 36 31 24 20 15 19 23 29 33 36 35 25 36 37 26 21 27 26 29 36 39 34
20 29 43 48 57 56 64 51 48 37 34 31 24 19 23 30 28 30 32 30 27 37 35 30 21 27 34 38 38 40 34 33
29 22 33 45 57 61 64 58 47 44 43 42 29 23 23 22 27 29 29 29 30 39 28 27 28 28 31 32 33 30 31 31
28 32 29 33 53 62 68 65 60 50 47 39 39 35 31 27 27 25 28 27 33 28 28 27 30 32 32 32 34 33 33 35
27 44 33 31 26 40 58 66 58 54 51 42 39 38 34 32 29 29 26 27 28 29 33 32 28 31 35 37 38 38 37 39
42 46 36 36 21 37 43 52 47 44 42 39 33 34 35 34 31 33 33 34 33 28 28 32 33 39 39 42 43 40 42 45
46 41 39 38 26 41 46 44 42 49 41 43 38 39 37 31 30 29 30 25 30 29 33 40 40 35 40 41 44 45 46 49
49 42 44 42 33 29 48 49 49 47 42 48 45 39 41 35 35 34 33 32 34 34 37 40 36 39 45 47 48 55 59 58
54 49 44 51 40 36 40 45 48 52 51 48 46 45 42 43 39 35 34 36 34 38 39 39 40 46 48 50 54 60 62 65
49 56 56 43 50 42 42 44 50 49 48 47 44 39 44 44 48 50 50 51 51 50 49 46 53 54 57 55 58 63 64 63
55 57 57 56 45 42 46 44 48 52 53 55 54 51 45 47 46 51 51 53 48 51 47 53 55 57 56 56 58 61 63 62
14 50 58 61 57 59 52 45 49 56 55 56 59 53 53 50 49 45 44 47 49 54 54 54 58 59 61 62 61 64 62 56
10 10 41 55 63 62 61 57 56 55 55 57 57 56 58 59 53 51 54 52 55 56 59 60 63 66 69 68 64 65 57 47
14 12 6 26 44 49 66 66 64 63 61 61 58 56 62 60 59 60 61 62 63 61 64 65 66 70 67 66 60 52 45 51

GFSFLT2_250_spd_078.txt.gz
Wind_Speed
45 44 40 38 32 25 31 33 21 24 35 23 13 16 29 26 28 24 30 29 23 22 22 26 34 43 40 32 28 24 17 12
44 42 39 32 28 33 35 47 45 51 61 38 31 23 35 32 38 34 30 35 28 27 27 29 39 40 37 35 28 27 24 13
40 41 34 29 27 35 37 52 56 60 55 41 32 34 39 39 43 38 25 31 33 29 28 34 40 35 32 28 32 29 26 19
37 34 29 21 23 35 42 54 61 60 54 52 37 39 43 37 44 36 23 19 25 25 27 33 36 30 31 31 33 25 23 18
34 28 24 23 25 32 43 52 65 56 59 60 56 42 43 48 48 44 36 32 23 25 34 34 30 29 33 36 32 29 26 18
31 24 21 26 28 33 40 47 60 53 59 60 56 48 44 51 45 44 46 43 30 29 29 31 32 36 38 35 33 34 35 20
28 22 18 28 28 33 35 35 58 57 61 57 54 52 52 45 43 35 32 34 33 31 25 34 33 36 35 38 36 31 23 19
29 22 15 28 26 31 29 35 59 65 63 55 56 48 49 42 32 26 19 15 25 25 30 28 31 33 35 37 36 26 21 21
32 20 19 25 28 28 26 38 60 58 59 48 44 56 48 37 28 25 19 28 26 24 24 28 38 37 39 39 36 24 22 23
28 22 17 24 28 26 25 39 51 64 62 44 59 52 55 50 38 37 34 33 33 25 28 30 43 40 42 39 36 26 26 25
28 24 21 23 27 26 26 36 56 61 55 61 62 54 45 43 38 34 29 24 28 29 26 34 43 45 40 40 37 28 28 29
28 25 20 25 25 23 29 31 56 62 60 59 58 60 50 39 30 28 32 29 29 25 25 36 37 46 42 41 33 32 33 32
29 29 28 24 28 21 30 34 47 56 63 61 59 59 60 47 37 35 34 35 28 29 29 30 34 42 35 37 40 40 38 40
24 30 30 22 29 28 36 41 48 53 55 52 56 52 52 41 37 34 34 32 29 32 34 36 30 35 39 38 38 47 42 41
14 32 29 25 27 31 34 38 50 53 49 54 52 55 54 48 46 44 32 33 33 35 38 39 35 39 38 39 43 46 43 43
10 25 30 29 26 37 36 37 42 54 53 53 49 53 50 52 53 50 37 34 27 32 38 43 40 40 42 44 47 46 46 51
11 11 34 35 32 38 39 33 29 42 48 54 49 53 56 56 46 41 41 38 41 42 44 46 50 54 47 46 44 52 52 52
11 11 8 36 38 45 45 38 33 29 35 40 41 50 57 47 48 48 50 48 47 52 55 54 55 54 57 55 54 53 55 57
12 10 10 12 42 46 50 47 42 40 36 39 43 45 49 52 50 50 51 55 62 57 52 50 49 52 56 53 54 55 56 59
10 9 8 8 8 47 51 56 50 51 46 44 44 50 52 56 58 58 62 57 61 58 58 56 56 57 57 60 63 65 66 68

GFSFLT2_250_spd_081.txt.gz
Wind_Speed
52 51 48 46 43 37 32 31 29 27 24 26 27 28 30 27 23 21 19 14 21 24 24 22 16 15 24 29 32 32 29 26
50 50 49 46 38 32 28 33 36 38 27 28 30 27 32 25 22 24 24 21 13 19 22 21 21 21 26 31 34 35 31 26
49 48 49 43 36 29 26 32 40 46 37 44 40 33 27 30 28 28 30 24 17 18 22 26 25 27 28 33 34 32 32 32
47 46 49 43 34 27 28 32 46 51 48 47 50 43 35 39 36 33 27 25 22 12 18 23 27 28 32 35 35 31 32 34
40 45 46 42 30 29 35 41 49 55 55 55 54 46 38 43 38 31 30 24 21 19 23 23 25 27 31 37 34 32 35 30
39 45 41 36 29 33 38 44 48 50 62 59 52 42 40 43 39 36 36 34 35 33 35 33 29 29 31 33 33 35 34 34
40 41 39 30 24 34 36 42 46 50 59 60 50 49 46 38 38 39 43 33 34 34 29 32 29 24 28 34 36 35 38 34
39 37 37 26 21 25 33 33 36 49 51 56 57 54 39 38 36 34 38 31 15 15 23 23 24 24 26 33 39 34 38 39
35 35 30 27 20 19 30 35 30 34 44 51 54 55 52 39 39 38 33 30 17 18 16 15 19 25 27 33 40 39 38 36
34 32 25 26 21 19 25 21 21 29 39 50 45 50 53 49 44 42 35 25 28 32 26 27 26 30 32 39 40 41 40 37
32 27 24 26 20 19 22 19 18 27 43 48 51 50 51 43 44 43 39 40 40 20 21 30 29 26 30 44 40 40 41 36
27 22 27 22 22 18 20 20 17 30 40 47 46 54 47 44 49 37 36 40 26 25 24 27 23 24 33 42 39 40 40 41
23 19 28 22 19 19 18 20 19 29 41 47 51 49 47 55 48 39 38 26 24 26 29 30 20 21 22 34 40 39 41 45
20 16 27 26 21 21 17 20 19 29 39 52 47 51 53 54 44 45 38 29 28 31 31 26 25 25 22 29 37 38 40 44
17 12 23 28 22 20 22 23 26 25 31 52 56 57 61 60 57 46 39 42 34 33 35 30 27 30 31 36 37 43 42 44
15 12 13 27 25 20 26 28 33 33 37 45 50 59 54 57 61 55 45 42 40 38 33 34 30 37 38 41 37 44 46 48
10 12 7 26 28 23 19 30 35 38 36 43 48 50 49 49 51 50 50 45 44 41 35 34 33 32 37 43 42 44 49 52
8 10 13 7 29 31 28 29 33 35 34 41 46 52 48 51 53 53 50 52 48 45 44 43 45 41 41 45 46 48 56 58
10 10 9 11 12 31 31 26 38 37 37 36 40 49 48 48 49 53 53 51 51 51 48 47 49 52 51 52 52 55 56 57
11 8 5 5 6 16 30 27 41 40 35 31 38 44 51 54 61 60 58 59 57 53 50 52 54 57 56 56 56 57 57 60

GFSFLT2_250_spd_084.txt.gz
Wind_Speed
65 62 58 50 47 41 40 37 37 38 33 37 39 33 28 29 30 20 11 13 21 21 18 20 17 21 23 20 20 22 25 27
65 60 58 50 47 42 40 34 32 33 35 38 45 39 36 36 33 27 25 17 21 15 15 19 16 16 15 16 21 23 26 30
63 59 52 50 46 42 39 30 30 32 37 39 43 42 34 34 36 34 30 23 23 16 12 14 14 16 17 21 25 24 28 32
58 52 48 47 46 41 37 28 26 37 43 45 48 47 43 42 42 37 32 25 25 20 9 10 13 11 16 18 22 25 29 34
52 43 45 45 39 38 36 29 36 42 50 51 46 50 43 45 43 35 34 24 22 17 14 13 12 10 15 18 22 25 30 35
42 38 44 40 36 38 33 29 41 46 50 57 51 48 46 39 43 39 35 26 20 20 22 21 20 25 23 23 23 22 28 34
37 37 39 35 37 37 30 28 43 51 50 58 58 51 48 45 40 39 33 34 28 31 28 23 25 25 24 24 21 27 31 35
35 35 36 32 37 35 27 29 42 51 52 53 62 55 52 45 37 39 36 37 35 30 20 14 16 19 22 17 23 33 36 34
32 32 35 35 37 27 26 25 29 40 49 50 55 63 55 50 38 38 34 31 28 21 14 11 10 11 12 24 23 27 31 33
28 31 35 38 32 23 24 24 24 30 29 38 48 45 53 47 44 41 35 29 24 27 24 18 19 21 20 27 31 28 32 34
26 30 34 30 25 23 20 22 23 22 23 27 31 42 49 51 46 35 29 23 25 22 23 25 18 19 29 27 24 25 31 34
23 34 31 26 20 22 19 24 21 20 20 23 30 39 51 48 47 40 34 32 36 29 31 22 20 29 23 23 25 23 30 36
28 27 22 22 19 24 19 21 22 20 25 29 39 38 46 45 52 48 39 39 37 39 38 38 27 20 21 21 21 18 26 33
20 17 18 20 23 20 19 19 20 23 26 35 34 37 38 43 44 46 38 39 37 33 25 23 21 24 21 20 21 20 22 30
13 12 15 17 25 22 22 18 19 20 31 25 36 39 38 39 42 47 48 34 31 24 23 24 27 30 25 26 27 26 25 29
12 11 12 10 28 27 17 21 24 24 24 33 35 40 41 46 50 52 52 54 45 35 36 33 29 36 34 31 28 28 29 31
8 9 9 6 22 26 21 28 29 28 30 35 35 35 44 50 48 54 53 51 51 45 42 37 42 37 40 34 33 35 38 43
8 7 8 9 13 27 26 31 35 31 37 36 41 46 49 48 46 46 51 54 51 46 45 42 38 35 35 36 43 40 40 41
12 8 8 9 7 27 30 26 38 38 34 33 41 43 44 49 47 51 55 53 48 50 52 49 44 48 48 45 44 44 43 49
15 9 5 6 5 9 29 29 26 41 41 39 37 37 49 51 54 52 53 50 52 51 51 56 56 52 51 55 50 52 52 55

GFSFLT2_250_spd_087.txt.gz
Wind_Speed
61 63 68 72 69 56 44 37 35 33 35 40 38 36 36 36 36 28 26 27 25 22 21 26 23 20 22 24 25 26 28 25
62 70 73 71 64 52 40 35 32 30 36 40 36 37 45 36 33 30 29 26 23 14 16 14 20 19 20 21 18 17 17 17
68 71 71 66 58 47 40 32 30 30 37 38 35 37 48 44 39 39 36 25 19 20 14 16 20 21 18 14 13 13 14 18
70 69 63 61 56 43 36 28 28 35 37 33 33 40 48 50 48 46 39 37 32 24 17 18 22 16 13 10 9 9 11 15
66 64 59 58 53 36 29 29 31 32 33 33 38 45 50 50 52 50 42 37 33 29 22 16 20 15 10 9 7 9 10 15
68 64 58 56 45 33 27 29 32 31 35 39 46 51 52 54 54 47 46 40 36 30 21 18 19 17 15 15 16 16 14 19
72 65 59 50 40 30 28 29 30 32 42 44 54 56 55 54 53 49 45 44 38 31 25 25 23 18 18 17 15 10 13 19
66 64 52 42 34 32 31 27 33 32 45 45 53 56 56 50 49 50 41 43 38 30 33 29 25 22 18 16 10 10 12 22
62 48 40 35 31 33 27 30 37 32 42 45 51 58 60 49 46 53 45 44 42 34 28 23 21 19 15 11 6 10 20 23
43 40 32 30 33 28 28 35 33 29 30 44 42 52 61 52 51 47 42 46 40 28 23 18 19 18 16 12 13 17 22 18
38 32 27 30 31 24 32 32 30 27 26 32 34 47 53 58 54 49 42 41 33 30 20 21 25 23 22 22 20 18 24 13
35 24 28 31 23 31 32 29 30 26 26 25 30 38 48 46 59 54 49 36 37 31 26 24 27 26 27 23 20 17 18 15
23 25 28 23 25 30 25 29 25 25 27 25 26 31 37 46 48 53 53 48 43 26 28 27 23 27 29 25 15 13 17 16
25 26 21 20 23 24 27 28 23 27 26 24 27 26 35 41 42 50 52 47 33 32 38 28 28 29 26 25 17 20 19 25
26 23 18 14 19 21 26 25 26 27 27 26 29 29 30 42 48 50 46 43 36 39 37 34 34 24 19 18 19 24 26 25
28 23 15 10 14 25 28 26 25 25 28 29 34 34 37 35 52 47 45 45 38 40 32 29 26 26 22 24 26 24 22 28
27 20 12 7 10 27 28 30 27 27 25 34 35 35 36 32 38 45 47 41 45 38 37 27 27 29 29 28 28 34 31 33
25 17 10 6 8 25 32 27 30 34 33 44 29 37 33 36 33 37 46 49 43 36 36 32 34 40 39 37 34 33 31 38
27 15 7 5 8 13 32 29 34 35 38 35 36 37 40 37 46 43 47 50 53 53 46 46 48 50 46 45 46 42 41 42
28 17 8 5 7 10 34 32 40 32 38 36 36 37 41 42 48 42 48 52 53 61 58 58 56 57 52 53 53 51 51 50

GFSFLT2_250_spd_093.txt.gz
Wind_Speed
57 58 58 58 58 58 61 62 58 57 56 54 50 46 43 39 31 33 30 32 27 32 32 31 26 27 30 30 32 30 29 30
62 61 60 60 59 61 61 60 59 59 57 54 53 45 47 47 41 35 29 26 21 24 22 30 23 28 24 26 24 26 24 25
65 64 62 60 60 60 60 60 62 61 58 57 56 45 39 39 31 22 17 18 17 15 19 22 20 16 16 16 18 20 21 25
66 66 64 61 61 61 62 62 64 63 60 59 57 44 39 36 33 25 28 28 25 23 23 24 20 13 12 14 16 21 21 17
66 67 64 64 65 62 63 64 63 62 62 58 55 42 39 39 36 37 36 33 34 28 27 28 24 19 15 16 20 22 15 14
64 67 63 64 64 64 67 67 66 66 63 57 51 39 40 43 40 42 37 35 34 34 31 29 28 25 24 24 22 21 17 13
64 65 68 66 64 68 67 64 67 65 61 55 45 37 38 35 39 43 41 45 39 38 33 31 29 27 25 24 19 19 15 12
64 67 69 70 71 69 64 65 70 62 57 48 40 37 37 33 37 40 43 49 44 44 46 43 37 32 29 22 24 23 20 18
65 67 70 73 72 72 67 69 69 60 51 40 36 32 31 35 33 41 40 51 49 52 49 52 41 37 33 25 29 23 23 20
68 70 74 75 76 66 69 71 64 50 43 38 36 30 32 38 40 45 50 48 52 55 52 50 40 34 32 35 31 23 25 21
71 72 75 77 68 67 71 66 51 40 36 38 34 30 32 42 47 48 53 53 53 53 50 47 44 36 34 34 26 25 27 23
73 75 75 72 69 70 62 51 39 35 35 34 26 32 34 46 53 50 56 55 55 56 51 49 48 42 34 32 33 29 26 21
74 75 73 69 68 63 49 39 31 32 34 28 30 33 35 46 50 52 55 58 59 52 52 51 50 47 38 36 35 31 29 26
74 76 65 71 64 49 37 30 28 33 30 29 32 33 31 46 44 52 55 58 54 53 51 48 47 43 41 41 38 35 33 30
73 69 68 75 52 37 29 27 30 28 30 32 29 30 27 33 43 48 47 61 60 47 52 47 47 43 42 34 41 41 37 33
72 71 75 59 39 29 26 28 29 30 32 28 31 29 29 32 39 45 41 55 61 49 49 49 49 55 43 38 39 41 40 35
74 71 60 42 33 29 26 27 29 31 29 30 30 32 35 33 34 40 39 48 51 59 52 51 55 47 46 44 38 37 36 34
73 60 49 36 34 29 28 26 29 31 28 31 30 35 33 28 27 31 34 36 45 47 53 50 47 49 46 42 43 48 42 38
68 59 40 37 33 31 31 26 29 30 35 32 34 35 31 29 31 26 29 35 36 49 51 56 50 47 46 45 47 44 42 42
56 40 40 38 32 31 30 28 30 32 37 35 36 35 32 35 26 32 38 36 37 40 55 55 47 44 46 51 43 41 41 43

GFSFLT2_250_spd_096.txt.gz
Wind_Speed
61 63 60 52 55 54 55 55 57 53 54 55 56 52 46 50 46 45 37 35 32 31 27 26 28 29 29 25 24 23 23 21
64 63 61 57 56 57 55 56 57 55 57 57 55 54 45 48 45 38 33 27 26 23 15 13 12 17 22 16 21 20 19 21
68 64 62 58 58 59 56 58 58 57 58 57 59 55 50 50 43 35 25 24 22 18 17 16 15 18 17 9 14 18 17 20
67 67 64 62 60 60 57 57 58 60 59 60 61 57 54 53 47 36 33 32 26 29 27 22 20 21 14 10 5 8 14 16
65 69 68 61 57 59 57 59 60 62 63 64 68 62 59 55 46 35 38 37 31 35 32 25 22 22 22 21 17 16 16 17
62 68 64 60 58 59 60 62 62 65 67 69 69 62 62 54 45 38 39 42 39 37 29 32 28 29 26 19 17 17 15 18
63 65 62 61 61 62 62 63 65 68 72 75 70 63 63 55 45 39 41 44 40 42 45 38 33 35 26 23 24 15 15 15
61 62 61 63 65 66 66 67 66 72 74 79 68 67 59 50 40 41 44 42 42 44 45 37 40 36 28 25 26 20 15 15
54 62 63 65 69 70 68 72 73 73 78 73 73 68 54 40 37 41 41 43 44 49 45 38 32 32 36 30 28 22 18 23
58 58 68 68 67 70 73 73 76 79 75 70 70 55 38 31 38 39 39 39 48 52 43 41 40 42 41 37 34 29 23 23
65 64 69 73 71 73 73 73 74 80 69 69 54 38 28 32 39 34 36 41 39 53 45 48 45 46 45 37 34 32 31 26
65 66 70 73 71 72 74 75 81 70 71 58 40 28 25 35 37 33 38 43 44 57 47 54 53 52 48 39 32 33 31 25
69 69 69 67 68 69 74 76 73 67 62 42 31 27 28 40 36 32 40 43 43 48 52 52 53 53 50 40 34 34 35 25
67 67 62 66 72 75 74 73 68 62 46 32 27 27 32 38 36 34 48 46 43 47 56 49 58 54 45 43 36 36 38 31
67 65 66 70 78 74 71 68 65 47 35 25 25 30 33 35 36 37 54 51 48 49 55 56 56 53 46 46 41 39 36 33
62 65 72 71 77 69 70 66 53 34 29 26 28 33 34 34 34 38 56 56 54 48 55 53 57 54 48 49 48 44 39 37
62 66 75 71 74 67 71 54 39 31 29 30 32 34 34 32 36 39 56 52 49 48 56 50 57 52 46 48 49 46 39 38
63 75 76 71 71 72 66 53 34 32 32 31 33 33 31 33 31 28 40 45 44 44 47 52 52 50 44 48 46 46 42 38
67 72 71 70 78 73 57 41 35 34 31 33 34 33 33 32 30 29 29 35 44 39 44 55 56 43 47 49 52 52 47 48
70 72 77 75 73 63 41 35 38 36 33 31 32 33 33 33 33 28 25 22 37 27 33 47 59 58 52 50 49 52 53 51

GFSFLT2_250_spd_102.txt.gz
Wind_Speed
63 59 58 60 63 56 51 45 45 50 49 50 46 45 46 46 46 43 44 44 46 43 39 33 26 23 16 25 26 24 21 23
59 57 57 57 62 56 54 49 49 49 50 49 48 48 48 46 45 44 45 44 44 44 41 34 30 28 21 25 23 14 12 15
54 50 51 54 60 54 51 50 51 53 48 51 51 51 48 47 46 45 47 47 48 50 38 37 37 38 27 29 20 12 11 12
54 51 53 56 60 53 48 49 50 51 55 56 53 49 49 48 48 48 50 52 56 51 45 37 38 40 35 32 18 12 8 2
57 53 50 52 55 54 49 49 49 55 58 47 49 46 49 49 50 52 54 56 57 56 57 43 42 42 35 33 26 19 16 11
53 60 54 52 52 51 49 50 48 47 49 50 47 46 49 52 52 53 57 59 59 61 65 46 42 41 37 36 32 27 26 23
57 59 51 49 49 47 47 50 51 47 54 49 47 50 52 54 55 56 61 61 62 67 62 51 45 47 39 39 39 36 29 26
60 55 54 46 47 49 51 51 45 49 52 48 48 52 55 56 58 61 65 65 70 64 55 49 47 49 41 43 43 36 30 28
54 51 51 46 48 52 53 52 51 55 47 48 52 54 57 59 60 63 67 72 70 58 50 45 46 50 45 46 42 35 28 28
55 49 51 46 46 51 52 54 55 52 47 51 53 56 57 60 61 66 70 71 61 51 41 38 46 52 51 49 43 37 31 30
53 51 52 53 47 47 50 52 50 50 49 50 54 56 57 58 62 68 74 65 52 41 30 37 47 52 53 48 42 36 34 33
54 46 49 49 44 43 46 51 47 47 48 51 54 55 54 58 61 69 67 51 40 30 31 40 48 51 50 44 40 41 36 38
63 44 42 37 42 44 49 46 44 46 52 54 53 52 55 59 61 65 57 42 31 27 35 41 46 49 50 46 46 44 42 41
60 47 46 45 43 47 45 41 45 51 54 53 51 53 60 58 63 59 48 36 27 32 37 39 45 49 48 48 53 45 43 46
62 52 47 45 46 48 47 45 47 50 52 55 55 58 60 58 58 53 41 33 30 35 35 40 47 53 53 54 46 42 41 43
62 60 56 50 49 55 52 47 47 50 55 57 59 60 57 61 52 49 36 31 34 35 37 43 49 57 56 57 56 45 44 45
59 57 60 60 60 52 54 48 48 51 60 59 57 59 61 60 52 42 36 34 36 38 31 38 43 54 62 64 58 53 47 45
59 56 56 52 49 51 52 50 51 58 59 59 59 60 63 60 50 38 36 36 39 38 42 38 43 45 51 62 58 58 54 50
59 51 49 52 53 53 56 51 53 57 59 57 60 62 61 57 41 37 38 39 39 43 44 43 45 50 50 52 59 57 54 55
51 52 54 54 56 53 56 52 56 55 56 60 63 60 64 47 36 39 39 38 41 47 47 50 47 55 58 54 47 55 57 55

GFSFLT2_250_spd_105.txt.gz
Wind_Speed
57 63 68 69 68 66 66 60 55 49 48 48 45 45 42 41 37 38 38 38 35 35 38 38 42 41 39 36 40 37 36 32
54 55 58 61 63 63 63 61 52 46 46 50 49 46 44 39 40 42 40 39 40 39 42 43 40 40 41 41 36 32 34 34
54 52 50 51 49 54 55 58 50 45 46 48 48 46 44 43 48 45 41 43 43 43 42 45 45 43 43 44 36 29 36 31
51 50 53 53 51 51 51 52 49 47 47 47 46 47 45 49 47 43 40 44 43 45 44 46 48 46 44 46 37 34 34 29
56 55 56 54 50 50 50 54 53 49 46 45 47 45 48 46 43 42 43 44 46 49 48 50 50 49 47 46 34 35 29 34
56 58 55 60 58 54 51 51 51 44 43 46 45 46 44 46 45 42 46 47 49 52 54 56 56 53 53 47 34 38 35 30
59 57 58 62 57 54 51 51 53 45 39 43 46 49 51 51 45 45 47 48 53 55 56 59 61 59 59 48 39 43 38 35
61 59 63 67 62 56 52 49 49 44 43 46 47 46 51 48 46 47 48 52 55 59 61 64 63 63 57 46 43 46 43 41
63 63 62 65 66 60 53 50 49 47 47 49 51 51 53 45 46 47 51 55 56 59 65 67 67 57 46 41 42 47 44 44
69 63 62 63 65 63 55 51 45 46 47 48 50 52 51 49 47 47 53 53 56 61 65 67 56 45 38 38 44 46 46 42
70 65 60 63 61 65 58 53 40 42 45 49 53 48 46 43 44 49 51 52 55 62 68 59 47 36 33 40 47 46 47 44
73 69 63 61 57 57 55 50 42 45 50 52 50 41 43 41 45 47 49 53 58 61 64 52 37 24 28 44 50 47 44 43
73 69 64 59 56 49 53 54 48 45 49 48 42 43 44 44 45 47 49 54 58 62 59 42 29 22 34 49 46 47 46 45
70 69 66 57 55 58 52 52 47 45 39 37 42 45 44 43 47 48 51 53 56 60 48 35 25 25 38 51 49 52 43 41
64 67 66 59 58 57 59 48 47 45 41 42 46 45 41 42 47 49 52 54 57 55 41 31 26 31 40 50 50 49 50 45
53 65 67 61 60 56 55 53 48 45 47 46 43 43 44 45 45 53 52 57 58 53 40 34 27 32 36 48 50 51 47 44
48 58 66 61 61 60 56 48 45 40 42 43 49 45 45 44 50 53 57 57 59 53 38 35 33 32 36 47 51 51 43 51
57 60 67 65 65 63 60 55 48 46 47 49 45 44 46 49 54 56 58 59 58 55 39 39 35 33 39 46 51 53 54 52
64 68 70 65 63 65 62 58 55 55 52 49 46 47 48 54 56 58 60 61 60 47 40 41 41 34 42 48 56 56 57 56
71 73 65 60 57 60 58 53 51 54 49 49 52 46 51 57 56 60 61 61 58 42 40 42 42 41 42 43 51 58 60 58

GFSFLT2_250_spd_108.txt.gz
Wind_Speed
55 56 57 57 60 61 62 63 64 63 59 58 56 54 51 49 48 44 42 37 35 35 37 36 37 37 38 39 42 39 38 32
58 58 57 56 57 59 59 59 58 58 56 56 54 48 45 43 44 44 43 34 36 38 41 40 38 37 37 39 41 42 38 32
64 62 61 58 57 59 59 57 54 51 51 50 50 46 45 44 45 42 39 36 38 35 37 38 39 38 38 41 40 43 39 33
66 65 65 61 59 59 59 58 54 54 51 49 46 45 44 42 41 41 38 34 37 36 36 38 38 39 41 44 45 42 43 35
67 66 66 64 61 58 58 57 56 55 52 48 45 46 46 41 41 39 35 35 37 38 38 40 40 41 42 45 44 44 40 40
65 67 67 66 60 58 55 56 56 54 51 45 41 45 44 43 41 37 35 40 40 38 39 43 43 45 46 49 48 49 47 41
63 65 66 65 62 62 54 54 56 58 56 52 44 42 43 39 39 38 42 41 40 41 43 44 46 49 50 54 55 55 56 46
65 64 68 66 63 64 58 56 55 60 58 54 46 41 42 40 40 42 45 43 44 43 44 46 50 52 55 58 59 62 58 47
63 69 70 69 62 62 60 58 56 57 56 52 46 43 41 41 43 44 46 43 43 44 45 47 50 55 60 62 63 56 45 42
62 67 73 73 70 66 62 61 57 55 57 54 49 46 42 43 45 44 42 43 43 44 43 47 50 55 59 62 52 39 36 40
59 65 68 74 75 75 67 62 56 56 55 53 51 50 44 43 44 40 40 39 42 41 43 44 50 54 60 51 37 33 35 46
61 64 63 71 77 78 73 66 59 55 56 55 52 49 45 44 39 37 36 37 40 40 42 46 49 54 55 39 29 30 41 51
60 64 66 66 75 76 76 70 64 56 52 57 54 51 44 41 40 43 42 38 41 41 42 46 49 52 49 31 24 33 49 51
62 62 68 67 68 71 74 74 66 58 54 53 50 46 40 40 44 45 42 41 42 44 42 44 48 51 45 26 25 41 49 47
75 64 66 68 65 72 74 70 64 59 54 53 45 42 45 42 42 41 41 39 42 44 44 43 44 47 42 25 33 45 44 44
76 68 65 68 67 68 71 68 64 61 56 60 56 53 50 42 41 38 37 40 41 45 45 45 44 49 42 27 37 46 46 52
68 68 65 68 65 63 69 72 67 57 55 58 60 52 46 43 42 40 40 38 40 46 46 48 46 49 44 32 35 50 48 52
63 64 62 65 65 60 66 71 66 57 57 51 51 48 47 45 42 42 42 40 43 48 50 49 49 50 48 36 38 47 55 54
56 58 60 62 63 60 67 71 66 59 56 49 43 40 42 46 40 42 44 45 48 51 52 53 54 50 43 39 38 40 54 58
52 56 59 60 61 60 67 69 66 59 57 52 46 40 44 45 45 49 48 46 51 53 53 52 52 52 39 43 38 44 46 55

GFSFLT2_250_spd_111.txt.gz
Wind_Speed
60 60 60 59 58 59 60 57 56 54 54 53 52 51 53 49 46 46 47 45 42 44 43 40 37 36 37 36 37 38 36 35
62 65 65 64 62 60 60 60 58 55 53 52 51 50 49 49 46 45 44 41 41 42 44 41 40 36 36 36 36 35 37 35
55 64 68 69 66 64 63 62 59 57 55 52 51 51 48 48 45 42 42 40 43 43 43 38 38 36 36 36 36 36 36 37
53 55 60 68 69 66 64 64 60 56 53 50 51 51 47 47 46 43 41 41 39 42 37 37 37 34 37 36 36 37 39 38
56 57 58 60 66 69 66 66 62 58 52 47 46 48 48 45 44 44 46 42 39 38 31 35 35 35 37 37 38 39 40 41
59 62 59 58 58 62 65 65 62 59 54 47 44 47 46 44 44 44 45 42 41 36 33 36 35 36 38 39 40 42 43 43
66 63 63 57 57 58 59 62 60 59 56 51 47 46 46 44 42 41 43 44 37 35 35 35 36 38 39 41 42 44 46 47
72 71 63 56 59 59 59 58 61 58 56 53 48 48 47 47 44 41 40 38 37 35 37 37 39 38 40 43 44 47 49 55
79 78 68 56 57 64 61 60 58 59 58 56 52 49 45 43 45 44 40 39 35 35 38 35 40 38 40 44 46 49 53 58
85 83 77 62 55 64 65 64 61 61 61 57 52 51 49 44 41 44 39 38 37 38 36 37 38 36 39 44 46 51 54 50
83 80 77 71 56 58 66 65 64 61 60 58 52 49 50 46 44 45 42 39 41 33 35 38 36 36 39 40 46 51 54 39
80 80 80 79 68 53 60 61 62 66 64 64 61 52 50 47 44 44 42 43 38 31 34 37 36 34 34 39 44 51 42 30
86 84 84 84 77 64 54 58 62 64 68 70 65 57 53 48 45 46 44 43 36 36 38 41 37 35 33 38 43 48 34 23
91 89 90 86 79 68 56 58 63 64 68 66 66 60 58 52 48 48 45 41 38 40 44 42 40 36 33 35 40 43 35 22
92 92 93 87 78 68 58 60 56 59 60 64 65 68 64 54 51 46 44 40 39 41 44 40 40 35 32 35 37 39 34 23
92 87 85 85 79 68 59 57 52 63 67 70 69 67 64 53 51 47 36 39 47 46 41 37 38 36 34 35 33 35 30 32
89 82 83 87 79 70 62 59 56 71 72 70 65 65 65 52 52 53 47 45 46 43 40 37 39 36 37 35 32 35 31 38
78 77 77 78 76 69 64 64 65 73 72 68 63 65 62 52 52 50 46 44 43 43 41 38 39 38 40 38 35 36 37 41
64 63 65 70 70 67 66 68 71 73 71 66 62 61 58 52 52 52 45 43 44 42 39 40 40 40 43 40 41 41 41 43
54 54 57 60 64 64 66 64 70 69 69 63 61 58 57 53 46 48 40 43 44 41 42 42 43 42 41 41 44 46 44 46

GFSFLT2_250_spd_114.txt.gz
Wind_Speed
59 60 63 64 65 64 64 64 63 61 58 53 52 50 49 49 50 51 47 48 46 47 45 41 43 42 43 41 40 39 35 36
52 54 54 56 57 62 65 66 67 64 61 58 52 50 49 46 47 49 49 46 44 46 44 42 42 45 41 41 39 37 35 32
53 56 54 51 54 56 64 68 70 67 64 61 56 50 45 44 45 45 47 45 40 42 41 44 46 43 39 39 37 35 34 32
59 58 58 57 54 55 57 61 70 71 66 64 60 53 46 44 42 42 41 41 40 43 44 46 46 44 36 36 36 35 34 35
60 61 57 58 57 57 57 59 58 63 69 66 60 55 49 46 43 43 45 45 44 45 47 49 42 40 35 36 36 36 34 36
59 62 62 60 62 62 61 59 56 58 58 62 63 56 51 47 44 42 46 43 46 45 46 47 45 39 36 36 35 34 35 37
62 64 65 63 63 66 66 65 61 58 55 56 58 55 53 48 44 41 40 45 42 47 48 47 47 37 37 37 34 34 35 37
67 66 67 67 66 67 68 69 68 64 54 52 52 52 53 50 43 42 42 41 42 40 46 49 45 37 36 36 35 34 35 38
66 67 69 66 70 72 76 71 71 64 63 51 53 50 51 51 46 44 44 41 40 43 41 42 41 39 36 35 35 35 35 40
76 73 71 69 70 73 76 76 74 70 60 58 52 51 53 51 48 44 43 41 40 42 41 42 41 38 37 38 36 37 39 43
80 80 79 74 73 73 81 82 79 70 57 56 58 56 52 52 49 46 45 43 42 41 41 42 40 35 38 42 36 38 41 40
81 82 83 84 82 73 77 84 84 74 61 60 58 55 54 52 51 47 43 40 42 43 40 41 39 35 38 40 38 38 37 39
85 88 89 90 88 86 82 84 86 79 69 59 61 57 62 50 52 52 44 40 41 41 41 43 38 36 40 40 39 38 37 39
90 91 94 89 87 89 89 88 87 86 79 61 59 61 62 63 54 55 53 43 39 43 44 42 41 44 42 40 41 38 35 37
93 93 92 94 92 90 88 92 88 86 81 70 67 67 65 60 58 55 56 47 40 43 43 40 44 45 38 41 41 38 33 34
91 91 93 95 96 93 89 88 93 86 86 80 70 63 65 62 60 56 58 50 44 47 45 41 46 42 40 41 38 37 31 33
88 88 91 95 94 93 92 88 91 92 87 86 74 64 65 68 58 54 56 51 47 45 40 41 46 44 44 42 36 35 32 31
89 90 91 91 91 90 90 89 87 92 87 87 82 62 67 70 59 54 56 51 45 46 46 47 49 44 44 42 36 33 33 30
77 76 77 81 77 79 81 81 78 79 78 82 76 59 66 67 58 56 58 51 46 49 50 54 50 45 44 42 36 35 34 33
65 65 66 68 68 70 74 73 72 70 72 74 70 63 72 66 61 57 58 49 47 44 49 47 46 42 41 41 39 39 34 37

GFSFLT2_250_spd_117.txt.gz
Wind_Speed
53 53 54 54 55 57 56 59 59 61 61 60 58 58 55 52 50 47 45 43 45 46 48 43 45 44 45 40 43 42 42 36
53 52 52 54 54 54 54 52 53 51 54 57 60 59 59 56 51 48 45 42 42 43 45 44 46 43 42 36 44 42 35 39
57 57 54 51 52 54 57 57 55 55 55 54 56 61 61 60 56 52 47 44 41 39 39 39 36 35 35 43 45 41 37 40
58 57 55 54 54 55 56 59 59 54 51 50 51 52 56 62 59 55 52 45 41 37 37 37 35 38 37 40 46 43 37 38
59 58 54 53 56 54 56 56 61 62 57 51 47 47 54 52 55 58 53 45 41 41 41 40 40 42 44 44 44 39 37 37
60 58 57 59 59 59 61 58 64 63 61 58 56 47 41 46 48 52 52 47 44 44 43 44 44 42 45 41 41 36 38 35
63 60 59 60 62 62 66 64 64 65 62 60 60 57 48 44 46 47 51 49 45 44 42 38 42 47 44 47 44 40 40 37
65 63 62 61 64 68 70 68 68 66 64 62 61 62 61 43 44 44 48 48 47 43 41 40 39 40 47 50 44 39 38 39
69 69 68 66 65 69 70 70 62 70 67 65 65 62 65 56 45 44 46 47 47 43 40 38 39 40 39 42 39 40 39 40
72 75 76 74 71 71 72 71 71 69 68 66 67 64 66 68 57 44 46 46 46 45 42 39 40 41 40 38 38 39 40 40
82 83 83 80 79 76 76 75 74 74 71 69 67 71 69 71 63 48 48 48 49 45 42 42 41 40 37 37 38 41 42 40
88 86 86 84 82 80 77 75 74 77 75 70 70 68 76 72 61 60 48 50 49 48 47 44 43 38 37 36 39 42 41 39
95 89 88 85 83 80 79 78 78 77 76 75 76 74 72 69 64 56 57 53 52 51 45 44 44 41 32 36 37 40 40 38
96 94 90 85 84 85 85 83 85 82 80 84 82 82 80 74 73 64 62 52 54 51 46 43 40 40 36 36 37 42 44 40
97 97 96 94 94 92 89 90 90 90 86 82 84 83 82 78 76 65 57 53 56 53 51 43 38 36 39 39 40 49 44 38
99 100 101 104 100 97 98 95 91 88 87 85 84 82 80 77 75 74 64 58 55 59 55 50 41 40 37 36 44 44 42 40
105 104 101 99 99 100 97 95 90 89 86 85 85 82 81 83 75 74 68 61 56 62 59 54 45 41 40 39 44 43 43 42
101 96 94 94 95 95 95 93 92 91 87 83 80 81 84 81 81 78 72 62 57 60 61 57 49 42 39 38 43 44 45 42
91 89 88 91 91 92 92 92 92 90 87 83 82 84 84 77 77 81 77 67 58 60 62 56 50 44 40 37 45 47 44 41
85 82 80 80 80 78 77 79 79 80 81 84 81 84 85 85 79 77 79 62 57 57 61 53 49 45 43 52 54 52 45 40